Weather Roundup
Issued by NWS Springfield, MO

Home | Current Version | Previous Version | Text Only | Print | Product List | Glossary On
Versions: 1 2 3 4 5 6 7 8 9 10 11 12 13 14 15 16 17 18 19 20 21 22 23 24 25 26 27 28 29 30 31 32 33 34 35 36 37 38 39 40 41 42 43 44 45 46 47 48 49 50
000
NZUS99 KSGF 010407
HRRSGF

HOURLY WEATHER
NATIONAL WEATHER SERVICE SPRINGFIELD MO
1000 PM CST SAT JAN 31 2015

......SGF CWA......

CITY           SKY/WX    TMP DP  RH WIND       PRES   REMARKS
SPRINGFIELD    LGT RAIN  40  28  62 S23G31    29.90F WCI  30
JOPLIN         LGT RAIN  40  37  89 S12       29.91F FOG     WCI  33
WEST PLAINS    CLOUDY    38  24  57 SE10      30.05F WCI  31
ROLLA          CLOUDY    38  21  50 SE12G23   29.97F WCI  30
OSAGE BEACH    CLOUDY    41  23  48 S9        29.95R

......SURROUNDING SGF CWA......

CITY           SKY/WX    TMP DP  RH WIND       PRES   REMARKS
CHANUTE        LGT RAIN  39  38  96 S9        29.88F WCI  33
PARSONS        LGT RAIN  40  39  97 S7        29.89F FOG
COFFEYVILLE    LGT RAIN  40  39  97 S10       29.89F FOG     WCI  33
EMPORIA        LGT RAIN  37  37 100 S10       29.85F FOG     WCI  30
GROVE OK       RAIN      43  37  81 S6        29.92F
ROGERS AR      LGT RAIN  39  34  81 SE14      29.92F WCI  31
SILOAM SPRINGS CLOUDY    41  30  65 S13G18    29.94S
HARRISON AR    LGT RAIN  39  29  67 SE12      29.98F WCI  32
NEAR YELLVILLE CLOUDY    41  23  48 SE7       30.03F

......KANSAS AND MISSOURI......

CITY           SKY/WX    TMP DP  RH WIND       PRES   REMARKS
KANSAS CTY INT LGT SNOW  33  33 100 SE10      29.90F FOG     WCI  25
DOWNTOWN KC    LGT SNOW  35  32  88 E8        29.91F FOG     WCI  29
COLUMBIA       MIX PCPN  37  31  78 SE8       29.97F WCI  31
SEDALIA        LGT RAIN  36  33  89 SE12      29.95F WCI  28
ST JOSEPH      LGT SNOW  32  32 100 SE5       29.92F FOG     WCI  27
ST LOUIS       CLOUDY    41  25  53 SE12      30.09F
SPIRIT OF STL  CLOUDY    40  24  53 SE9       30.06F WCI  34
KIRKSVILLE     LGT SNOW  33  33 100 SE10      29.99F VSB 3/4 WCI  25
WICHITA        LGT RAIN  40  39  97 S13       29.83F FOG     WCI  32
TOPEKA         LGT SNOW  33  32  96 SE7       29.89F FOG     WCI  27
OLATHE         LGT SNOW  34  33  96 SE7       29.88F FOG     WCI  28

......TENNESSEE......

CITY           SKY/WX    TMP DP  RH WIND       PRES   REMARKS
MEMPHIS        CLOUDY    47  25  42 SE9       30.10F
NASHVILLE      CLOUDY    40  22  48 S5        30.21F

......ARKANSAS.......

CITY           SKY/WX    TMP DP  RH WIND       PRES   REMARKS
FAYETTEVILLE   CLOUDY    41  32  70 S21G30    29.93F
FT SMITH       CLOUDY    44  35  70 E8        29.99F
LITTLE ROCK    CLOUDY    43  30  60 CALM      30.09F

......OKLAHOMA.......

CITY           SKY/WX    TMP DP  RH WIND       PRES   REMARKS
TULSA          LGT RAIN  42  41  96 S12       29.89F FOG
PONCA CITY     LGT RAIN  41  40  96 S8        29.86F FOG
MCALESTER      LGT RAIN  45  40  82 SE9       29.93F
OKLAHOMA CITY  LGT RAIN  44  41  89 S12       29.87F FOG

......IOWA............

CITY           SKY/WX    TMP DP  RH WIND       PRES   REMARKS
DES MOINES     LGT SNOW  34  31  88 E7        29.97F VSB 3/4 WCI  28
QUAD CITIES    LGT RAIN  33  31  92 SE3       30.09F FOG

......ILLINOIS........

CITY           SKY/WX    TMP DP  RH WIND       PRES   REMARKS
QUINCY         LGT SNOW  33  31  92 E12       30.05F FOG     WCI  24
CHICAGO        LGT SNOW  31  29  92 E7        30.15R VSB 1   WCI  24




USA.gov is the U.S. government's official web portal to all federal, state and local government web resources and services.